GW3570 Weather Reports


time (UTC)temp
C
wind
direction
speed
KPH
gust
KPH
rain 1hr
cm
rain 24hr
cm
rain mn
cm
humidity
%
barometer
mb
20260507092707 6 213 0.0 0.0 0.00 0.00 0.00 98 1018.8
20260507092203 6 190 0.0 0.0 0.00 0.00 0.00 98 1018.8
20260507091700 6 197 0.0 0.0 0.00 0.00 0.00 98 1018.7
20260507091156 6 171 0.0 0.0 0.00 0.00 0.00 98 1018.7
20260507090652 6 229 0.0 0.0 0.00 0.00 0.00 98 1018.4
20260507090149 6 235 0.0 0.0 0.00 0.00 0.00 98 1018.4
20260507085646 6 201 0.0 0.0 0.00 0.00 0.00 98 1018.3
20260507085143 6 239 0.0 0.0 0.00 0.00 0.00 98 1018.3
20260507084640 6 228 0.0 0.0 0.00 0.00 0.00 97 1018.6
20260507084136 6 165 0.0 0.0 0.00 0.00 0.00 97 1018.3
20260507083633 6 230 0.0 0.0 0.00 0.00 0.00 97 1018.4
20260507083130 6 224 0.0 0.0 0.00 0.00 0.00 97 1018.5
20260507082625 6 218 0.0 0.0 0.00 0.00 0.00 97 1018.5
20260507082122 6 233 0.0 0.0 0.00 0.00 0.00 97 1018.7
20260507081619 6 249 0.0 0.0 0.00 0.00 0.00 97 1018.4
20260507081115 5 235 0.0 0.0 0.00 0.00 0.00 97 1018.7
20260507080612 5 235 0.0 0.0 0.00 0.00 0.00 97 1018.7
20260507080109 5 221 0.0 0.0 0.00 0.00 0.00 97 1018.5
20260507075603 5 220 0.0 0.0 0.00 0.00 0.00 97 1018.7
20260507075100 5 255 0.0 0.0 0.00 0.00 0.00 97 1018.9
20260507074557 5 228 0.0 0.0 0.00 0.00 0.00 97 1018.9
20260507074055 5 259 0.0 0.0 0.00 0.00 0.00 97 1018.8
20260507073550 5 244 0.0 0.0 0.00 0.00 0.00 97 1018.8
20260507073047 5 227 0.0 0.0 0.00 0.00 0.00 97 1019.0
20260507072545 5 270 0.0 0.0 0.00 0.00 0.00 97 1019.2
20260507072042 5 236 0.0 0.0 0.00 0.00 0.00 97 1019.0
20260507071539 5 238 0.0 0.0 0.00 0.00 0.00 97 1019.3
20260507071036 5 241 0.0 0.0 0.00 0.00 0.00 97 1019.2
20260507070533 5 243 0.0 0.0 0.00 0.00 0.00 96 1019.3
20260507070030 5 224 0.0 0.0 0.00 0.00 0.00 96 1019.5
20260507065526 5 230 0.0 0.0 0.00 0.00 0.00 96 1019.4
20260507065023 5 235 0.0 0.0 0.00 0.00 0.00 96 1019.5
20260507064521 5 237 0.0 0.0 0.00 0.00 0.00 96 1019.6
20260507064020 5 261 1.6 1.6 0.00 0.00 0.00 96 1019.5
20260507063516 5 242 0.0 0.0 0.00 0.00 0.00 96 1019.2
20260507063014 5 272 0.0 0.0 0.00 0.00 0.00 96 1019.4
20260507062510 5 299 0.0 0.0 0.00 0.00 0.00 96 1019.2
20260507062008 5 266 0.0 0.0 0.00 0.00 0.00 96 1019.2
20260507061506 5 267 1.6 1.6 0.00 0.00 0.00 96 1019.3
20260507061003 5 278 1.6 1.6 0.00 0.00 0.00 96 1019.4
20260507060501 5 189 0.0 0.0 0.00 0.00 0.00 96 1019.5
20260507055957 5 290 1.6 1.6 0.00 0.00 0.00 95 1019.4
20260507055452 5 280 1.6 1.6 0.00 0.00 0.00 95 1019.6
20260507054949 5 224 0.0 1.6 0.00 0.00 0.00 95 1019.4
20260507054445 5 259 0.0 1.6 0.00 0.00 0.00 95 1019.4
20260507053943 5 303 1.6 1.6 0.00 0.00 0.00 95 1019.4
20260507053440 5 245 0.0 0.0 0.00 0.00 0.00 95 1019.3
20260507052938 5 192 0.0 0.0 0.00 0.00 0.00 95 1019.4
20260507052436 5 253 0.0 0.0 0.00 0.00 0.00 94 1019.5
20260507051933 5 256 0.0 0.0 0.00 0.00 0.00 94 1019.5
20260507051430 5 200 0.0 0.0 0.00 0.00 0.00 94 1019.8
20260507050927 5 218 0.0 0.0 0.00 0.00 0.00 94 1019.7
20260507050423 6 229 0.0 0.0 0.00 0.00 0.00 94 1019.6
20260507045920 6 207 0.0 0.0 0.00 0.18 0.18 94 1020.0
20260507045417 6 225 0.0 0.0 0.00 0.18 0.18 93 1019.5
20260507044914 6 253 0.0 0.0 0.00 0.18 0.18 93 1019.6
20260507044410 6 270 0.0 1.6 0.00 0.18 0.18 93 1019.3
20260507043906 6 294 1.6 3.2 0.00 0.18 0.18 92 1019.4
20260507043357 6 307 0.0 0.0 0.00 0.18 0.18 92 1019.5
20260507042853 6 282 0.0 0.0 0.00 0.18 0.18 92 1019.4
20260507042350 6 261 0.0 0.0 0.00 0.18 0.18 91 1019.2
20260507041846 6 291 0.0 0.0 0.00 0.18 0.18 91 1019.4
20260507041343 6 297 0.0 0.0 0.00 0.18 0.18 91 1019.3
20260507040840 6 234 0.0 0.0 0.00 0.18 0.18 90 1019.4
20260507040336 6 278 0.0 0.0 0.00 0.18 0.18 90 1019.4
20260507035832 6 272 0.0 0.0 0.00 0.18 0.18 90 1019.5
20260507035327 6 258 0.0 0.0 0.00 0.18 0.18 89 1019.8
20260507034825 6 261 0.0 0.0 0.00 0.18 0.18 88 1019.4
20260507034322 6 233 0.0 0.0 0.00 0.18 0.18 88 1019.5
20260507033820 6 218 0.0 0.0 0.00 0.18 0.18 87 1019.6
20260507033318 6 243 1.6 1.6 0.00 0.18 0.18 87 1019.3
20260507032814 7 293 1.6 1.6 0.00 0.18 0.18 86 1019.4
20260507032310 7 226 0.0 0.0 0.00 0.18 0.18 86 1019.4
20260507031807 7 298 0.0 0.0 0.00 0.18 0.18 84 1019.4
20260507031304 7 257 0.0 0.0 0.00 0.18 0.18 83 1019.4
20260507030800 7 253 0.0 0.0 0.00 0.18 0.18 82 1019.1
20260507030258 7 280 0.0 0.0 0.00 0.18 0.18 82 1019.2
20260507025755 7 294 0.0 0.0 0.00 0.18 0.18 81 1019.1
20260507025253 7 255 0.0 0.0 0.00 0.18 0.18 80 1019.0
20260507024750 7 245 0.0 0.0 0.00 0.18 0.18 78 1019.1
20260507024247 7 270 0.0 0.0 0.00 0.18 0.18 77 1019.2
20260507023743 7 279 0.0 0.0 0.00 0.18 0.18 75 1019.0
20260507023240 7 239 0.0 0.0 0.00 0.18 0.18 75 1018.9
20260507022737 8 241 0.0 0.0 0.00 0.18 0.18 75 1019.0
20260507022233 8 343 0.0 0.0 0.00 0.18 0.18 74 1018.8
20260507021729 8 20 0.0 0.0 0.00 0.18 0.18 73 1018.7
20260507021225 8 32 0.0 0.0 0.00 0.18 0.18 72 1018.7
20260507020724 8 84 0.0 0.0 0.00 0.18 0.18 73 1018.7
20260507020219 8 225 0.0 0.0 0.00 0.18 0.18 72 1018.7
20260507015717 9 136 0.0 0.0 0.00 0.18 0.18 69 1018.4
20260507015215 8 38 3.2 3.2 0.00 0.18 0.18 71 1018.5
20260507014711 9 332 1.6 1.6 0.00 0.18 0.18 69 1018.4
20260507014207 10 18 1.6 1.6 0.00 0.18 0.18 68 1018.3
20260507013704 10 40 1.6 1.6 0.00 0.18 0.18 68 1018.4
20260507013202 10 23 1.6 1.6 0.00 0.18 0.18 66 1018.5
20260507012659 10 55 1.6 1.6 0.00 0.18 0.18 67 1018.3
20260507012154 10 306 1.6 1.6 0.00 0.18 0.18 67 1018.1
20260507011652 11 280 0.0 0.0 0.00 0.18 0.18 66 1018.2
20260507011148 11 278 0.0 1.6 0.00 0.18 0.18 63 1018.3
20260507010643 11 254 0.0 1.6 0.00 0.18 0.18 64 1018.0
20260507010139 12 274 0.0 0.0 0.00 0.18 0.18 58 1017.6
20260507005637 12 280 1.6 1.6 0.00 0.18 0.18 57 1017.6
20260507005133 13 345 1.6 3.2 0.00 0.18 0.18 55 1017.7
20260507004630 13 290 1.6 1.6 0.00 0.18 0.18 45 1017.6
20260507004128 14 352 3.2 3.2 0.00 0.18 0.18 45 1017.7
20260507003624 14 315 1.6 1.6 0.00 0.18 0.18 45 1017.5
20260507003118 15 359 4.8 8.0 0.00 0.18 0.18 43 1017.6
20260507002615 15 313 4.8 8.0 0.00 0.18 0.18 45 1017.7
20260507002111 15 357 4.8 4.8 0.00 0.18 0.18 43 1017.5
20260507001608 15 316 4.8 4.8 0.00 0.18 0.18 43 1017.3
20260507001106 15 1 6.4 8.0 0.00 0.18 0.18 41 1017.5
20260507000602 15 320 8.0 11.3 0.00 0.18 0.18 39 1017.7
20260507000057 15 215 1.6 1.6 0.00 0.18 0.18 40 1017.2
20260506235555 15 332 3.2 3.2 0.00 0.18 0.18 41 1017.2
20260506235050 15 9 6.4 8.0 0.00 0.18 0.18 42 1017.4
20260506234548 16 351 6.4 8.0 0.00 0.18 0.18 40 1017.3
20260506234044 16 349 6.4 8.0 0.00 0.18 0.18 40 1017.1
20260506233542 16 282 11.3 12.9 0.00 0.18 0.18 41 1017.3
20260506233038 16 319 6.4 8.0 0.00 0.18 0.18 39 1017.0
20260506232534 16 260 8.0 9.7 0.00 0.18 0.18 42 1017.3
20260506232030 15 343 6.4 8.0 0.00 0.18 0.18 40 1017.4
20260506231528 15 331 3.2 4.8 0.00 0.18 0.18 44 1017.4
20260506231026 16 263 4.8 4.8 0.00 0.18 0.18 39 1017.3
20260506230522 16 1 4.8 4.8 0.00 0.18 0.18 40 1017.5
20260506230019 15 237 3.2 3.2 0.00 0.18 0.18 38 1017.5
20260506225516 16 350 9.7 12.9 0.00 0.18 0.18 43 1017.4
20260506225007 16 42 1.6 1.6 0.00 0.18 0.18 38 1017.3
20260506224504 16 288 3.2 4.8 0.00 0.18 0.18 42 1017.3
20260506224001 16 152 3.2 3.2 0.00 0.18 0.18 40 1017.5
20260506223456 16 320 8.0 11.3 0.00 0.18 0.18 38 1017.3
20260506222953 16 335 4.8 4.8 0.00 0.18 0.18 36 1017.5
20260506222450 16 286 3.2 3.2 0.00 0.18 0.18 37 1017.4
20260506221946 16 12 6.4 8.0 0.00 0.18 0.18 36 1017.3
20260506221443 17 354 11.3 12.9 0.00 0.18 0.18 36 1017.4
20260506220941 17 126 3.2 4.8 0.00 0.18 0.18 34 1017.5
20260506220436 16 322 4.8 8.0 0.00 0.18 0.18 37 1017.3
20260506215933 16 281 6.4 11.3 0.00 0.18 0.18 35 1017.2
20260506215429 16 328 4.8 8.0 0.00 0.18 0.18 35 1017.4
20260506214925 17 260 3.2 3.2 0.00 0.18 0.18 37 1017.4
20260506214422 17 359 4.8 8.0 0.00 0.18 0.18 38 1017.4
20260506213920 17 9 8.0 9.7 0.00 0.18 0.18 36 1017.1
20260506213418 17 332 6.4 8.0 0.00 0.18 0.18 39 1017.3
20260506212915 17 353 6.4 9.7 0.00 0.18 0.18 40 1017.3
20260506212411 17 4 8.0 9.7 0.00 0.18 0.18 37 1017.3
20260506211905 16 334 4.8 4.8 0.00 0.18 0.18 36 1017.1
20260506211402 17 318 4.8 9.7 0.00 0.18 0.18 38 1017.2
20260506210859 17 266 3.2 4.8 0.00 0.18 0.18 37 1017.4
20260506210356 17 42 6.4 8.0 0.00 0.18 0.18 37 1017.3
20260506205853 17 3 6.4 8.0 0.00 0.18 0.18 41 1017.3
20260506205349 17 16 11.3 14.5 0.00 0.18 0.18 41 1017.4
20260506204846 17 54 4.8 4.8 0.00 0.18 0.18 39 1017.4
20260506204343 17 258 4.8 4.8 0.00 0.18 0.18 44 1017.2
20260506203841 16 22 3.2 4.8 0.00 0.18 0.18 42 1017.4
20260506203338 17 308 8.0 12.9 0.00 0.18 0.18 42 1017.6
20260506202834 17 6 8.0 9.7 0.00 0.18 0.18 41 1017.9
20260506202332 16 299 12.9 16.1 0.00 0.18 0.18 41 1017.9
20260506201828 16 312 8.0 9.7 0.00 0.18 0.18 43 1017.8
20260506201326 16 335 8.0 9.7 0.00 0.18 0.18 46 1017.8
20260506200822 16 236 3.2 3.2 0.00 0.18 0.18 47 1017.8
20260506200318 16 280 4.8 8.0 0.00 0.18 0.18 41 1018.1
20260506195814 17 282 8.0 9.7 0.00 0.18 0.18 44 1018.1
20260506195312 16 200 3.2 8.0 0.00 0.18 0.18 40 1018.1
20260506194809 16 263 4.8 8.0 0.00 0.18 0.18 44 1018.3
20260506194305 16 326 8.0 14.5 0.00 0.18 0.18 45 1018.0
20260506193803 16 228 3.2 3.2 0.00 0.18 0.18 44 1018.5
20260506193259 16 288 6.4 9.7 0.00 0.18 0.18 44 1018.5
20260506192755 15 1 8.0 9.7 0.00 0.18 0.18 46 1018.6
20260506192253 15 47 3.2 4.8 0.00 0.18 0.18 44 1018.5
20260506191750 15 323 3.2 3.2 0.00 0.18 0.18 50 1018.8
20260506191246 16 313 8.0 9.7 0.00 0.18 0.18 51 1018.6
20260506190743 16 19 4.8 4.8 0.00 0.18 0.18 49 1018.7
20260506190240 16 284 6.4 8.0 0.00 0.18 0.18 48 1018.6
20260506185737 15 306 8.0 9.7 0.00 0.18 0.18 45 1018.8
20260506185233 15 318 8.0 11.3 0.00 0.18 0.18 44 1018.7
20260506184730 16 7 9.7 12.9 0.00 0.18 0.18 42 1018.9
20260506184228 16 11 9.7 11.3 0.00 0.18 0.18 49 1018.7
20260506183725 16 244 1.6 1.6 0.00 0.18 0.18 41 1018.9
20260506183220 15 327 12.9 16.1 0.00 0.18 0.18 44 1018.7
20260506182718 15 318 11.3 14.5 0.00 0.18 0.18 42 1019.0
20260506182215 15 199 4.8 4.8 0.00 0.18 0.18 40 1019.0
20260506181713 15 342 4.8 4.8 0.00 0.18 0.18 41 1019.3
20260506181210 15 0 11.3 12.9 0.00 0.18 0.18 44 1019.1
20260506180707 15 347 6.4 8.0 0.00 0.18 0.18 43 1019.3
20260506180202 15 357 9.7 11.3 0.00 0.18 0.18 45 1019.2
20260506175659 15 323 6.4 8.0 0.00 0.18 0.18 43 1019.0
20260506175156 15 9 8.0 11.3 0.00 0.18 0.18 46 1018.9
20260506174649 15 296 8.0 9.7 0.00 0.18 0.18 44 1019.3
20260506174145 15 347 6.4 8.0 0.00 0.18 0.18 47 1019.0
20260506173643 15 291 8.0 9.7 0.00 0.18 0.18 45 1019.0
20260506173140 15 344 8.0 9.7 0.00 0.18 0.18 46 1019.2
20260506172637 15 264 6.4 8.0 0.00 0.18 0.18 49 1018.9
20260506172133 15 279 8.0 12.9 0.00 0.18 0.18 48 1019.0
20260506171630 16 320 4.8 4.8 0.00 0.18 0.18 50 1018.7
20260506171129 15 198 3.2 4.8 0.00 0.18 0.18 48 1018.9
20260506170626 15 324 9.7 11.3 0.00 0.18 0.18 49 1019.0
20260506170123 14 343 9.7 11.3 0.00 0.18 0.18 53 1018.8
20260506165621 13 328 6.4 8.0 0.00 0.18 0.18 54 1019.1
20260506165117 13 235 4.8 4.8 0.00 0.18 0.18 58 1019.1
20260506164614 14 239 4.8 8.0 0.00 0.18 0.18 67 1018.9
20260506164112 13 176 3.2 3.2 0.00 0.18 0.18 60 1019.2
20260506163608 13 246 4.8 4.8 0.00 0.18 0.18 62 1019.0
20260506163103 13 311 4.8 8.0 0.00 0.18 0.18 62 1019.1
20260506162559 15 280 1.6 3.2 0.00 0.18 0.18 60 1018.9
20260506162051 14 158 0.0 0.0 0.00 0.18 0.18 61 1018.9
20260506161548 13 245 1.6 1.6 0.00 0.18 0.18 60 1018.9
20260506161040 12 245 4.8 4.8 0.00 0.18 0.18 62 1018.6
20260506160537 13 316 11.3 11.3 0.00 0.18 0.18 61 1018.9
20260506160034 13 329 8.0 9.7 0.00 0.18 0.18 63 1018.8
20260506155532 12 355 8.0 11.3 0.00 0.18 0.18 65 1018.8
20260506153704 12 310 4.8 8.0 0.00 0.18 0.18 62 1019.0
20260506153201 12 1 3.2 3.2 0.00 0.18 0.18 66 1019.0
20260506152658 12 212 0.0 0.0 0.00 0.18 0.18 63 1019.0
20260506152155 12 4 6.4 8.0 0.00 0.18 0.18 65 1019.0
20260506151654 12 239 3.2 3.2 0.00 0.18 0.18 70 1019.0
20260506151150 12 254 3.2 3.2 0.00 0.18 0.18 73 1019.0
20260506150647 11 271 4.8 4.8 0.00 0.18 0.18 72 1018.8
20260506150144 11 289 4.8 4.8 0.00 0.18 0.18 73 1018.8
20260506145641 11 252 1.6 3.2 0.00 0.18 0.18 76 1018.8
20260506145138 11 259 3.2 3.2 0.00 0.18 0.18 77 1018.8
20260506144636 10 257 3.2 3.2 0.00 0.18 0.18 78 1018.7
20260506144132 10 259 1.6 1.6 0.00 0.18 0.18 80 1018.6
20260506143630 10 301 3.2 3.2 0.00 0.18 0.18 81 1018.5
20260506143127 10 256 4.8 4.8 0.00 0.18 0.18 83 1018.7
20260506142626 10 307 4.8 4.8 0.00 0.18 0.18 84 1018.6
20260506142123 10 321 4.8 4.8 0.00 0.18 0.18 87 1018.4
20260506141621 10 260 1.6 1.6 0.00 0.18 0.18 85 1018.5
20260506141119 10 349 3.2 3.2 0.00 0.18 0.18 86 1018.3
20260506140616 10 298 3.2 3.2 0.00 0.18 0.18 85 1018.3
20260506140113 10 233 0.0 1.6 0.00 0.18 0.18 84 1018.3
20260506135610 10 289 3.2 3.2 0.00 0.18 0.18 85 1018.1
20260506135106 10 196 0.0 0.0 0.00 0.18 0.18 85 1017.9
20260506134603 9 214 0.0 0.0 0.00 0.18 0.18 86 1018.1
20260506134058 8 217 0.0 0.0 0.00 0.18 0.18 86 1018.1
20260506133556 8 234 0.0 0.0 0.00 0.18 0.18 88 1018.1
20260506133053 8 222 0.0 0.0 0.00 0.18 0.18 91 1017.8
20260506132550 8 224 0.0 0.0 0.00 0.18 0.18 92 1017.9
20260506132047 8 227 0.0 0.0 0.00 0.18 0.18 93 1018.2
20260506131544 8 217 0.0 0.0 0.00 0.18 0.18 94 1018.1
20260506131041 8 230 0.0 0.0 0.00 0.18 0.18 94 1017.9
20260506130538 7 201 0.0 0.0 0.00 0.18 0.18 95 1018.1
20260506130035 7 195 0.0 0.0 0.00 0.18 0.18 95 1018.1
20260506125533 7 207 0.0 0.0 0.00 0.18 0.18 95 1018.3
20260506125031 7 230 0.0 0.0 0.00 0.18 0.18 95 1018.2
20260506124529 7 260 0.0 0.0 0.00 0.18 0.18 95 1018.5
20260506124026 7 186 0.0 0.0 0.00 0.18 0.18 95 1018.3
20260506123524 7 176 0.0 0.0 0.00 0.18 0.18 94 1018.1
20260506123022 7 152 0.0 0.0 0.00 0.18 0.18 94 1018.3
20260506122518 7 166 0.0 1.6 0.00 0.18 0.18 94 1018.2
20260506122017 7 177 0.0 0.0 0.00 0.18 0.18 94 1018.1
20260506121514 7 193 0.0 0.0 0.00 0.18 0.18 94 1018.1
20260506121010 7 193 0.0 0.0 0.00 0.18 0.18 93 1018.1
20260506120508 7 193 0.0 0.0 0.00 0.18 0.18 93 1018.0
20260506120005 7 188 0.0 0.0 0.00 0.18 0.18 92 1018.1
20260506115502 7 220 0.0 0.0 0.00 0.18 0.18 92 1018.0
20260506115001 7 257 1.6 1.6 0.00 0.18 0.18 93 1018.4
20260506114458 7 281 1.6 1.6 0.00 0.18 0.18 93 1018.1
20260506113956 7 267 1.6 1.6 0.00 0.18 0.18 94 1017.8
20260506113454 7 285 1.6 3.2 0.00 0.18 0.18 94 1017.5
20260506112950 7 241 0.0 1.6 0.00 0.18 0.18 94 1017.7
20260506112448 7 342 3.2 3.2 0.00 0.18 0.18 95 1017.2
20260506111945 7 282 1.6 3.2 0.00 0.18 0.18 95 1017.5
20260506111443 7 263 1.6 1.6 0.00 0.18 0.18 95 1017.5
20260506110939 7 248 1.6 1.6 0.00 0.18 0.18 95 1017.4
20260506110438 7 248 1.6 1.6 0.00 0.18 0.18 96 1017.1
20260506105934 7 221 0.0 0.0 0.00 0.18 0.18 96 1016.9
20260506105430 7 244 0.0 0.0 0.00 0.18 0.18 96 1017.3
20260506104928 7 215 0.0 0.0 0.00 0.18 0.18 96 1017.3
20260506104426 7 221 0.0 0.0 0.00 0.18 0.18 96 1016.9
20260506103924 7 258 0.0 0.0 0.00 0.18 0.18 96 1017.4
20260506103421 7 279 1.6 1.6 0.00 0.18 0.18 96 1017.1
20260506102917 7 191 0.0 0.0 0.00 0.18 0.18 96 1016.6
20260506102416 7 219 0.0 0.0 0.00 0.18 0.18 95 1016.9
20260506101913 7 212 0.0 0.0 0.00 0.18 0.18 95 1016.5
20260506101409 7 180 0.0 0.0 0.00 0.18 0.18 95 1016.2
20260506100906 7 187 0.0 0.0 0.00 0.18 0.18 95 1016.3
20260506100404 7 197 0.0 0.0 0.00 0.18 0.18 95 1016.7
20260506095902 7 227 0.0 1.6 0.00 0.18 0.18 95 1016.5
20260506095400 7 234 0.0 0.0 0.00 0.18 0.18 95 1016.4
20260506094856 7 245 0.0 1.6 0.00 0.18 0.18 96 1016.5
20260506094355 7 316 3.2 3.2 0.00 0.18 0.18 96 1016.2
20260506093852 7 235 1.6 1.6 0.00 0.18 0.18 97 1015.8
20260506093350 7 291 4.8 8.0 0.00 0.18 0.18 97 1015.9
20260506092847 7 249 1.6 1.6 0.00 0.18 0.18 97 1015.6